{"data":{"norad_id":67883,"intl_designator":"2026-035E","name":"STARLINK-36856","alt_names":[],"object_type":"PAYLOAD","status":"ACTIVE","operator":null,"country":"US","launch_date":"2026-02-21","launch_site_code":"AFWTR","launch_vehicle":null,"mission":null,"orbit_class":"UNKNOWN","rcs_meters":null,"size_class":null,"mass_kg":null,"dimensions":null,"purposes":["comms"],"wikipedia_slug":null,"has_3d_model":false,"image_url":null,"decayed_at":null,"tle_current":{"epoch":"2026-05-25T01:47:58.494048Z","epoch_age_seconds":64482,"freshness":"FRESH","line1":"1 67883U 26035E   26145.07498257  .00018787  00000+0  58187-3 0  9990","line2":"2 67883  97.2850  78.5908 0004465  99.8716 260.3031 15.33488921 15691","mean_motion":15.33488921,"eccentricity":0.0004465,"inclination_deg":97.285,"raan_deg":78.5908,"arg_perigee_deg":99.8716,"mean_anomaly_deg":260.3031,"bstar":0.00058187,"rev_number":1569,"period_min":93.903515068173,"perigee_km":462.3568547506,"apogee_km":468.46814445375,"semimajor_km":6843.5494996022,"source":"CELESTRAK","updated_at":"2026-05-25T13:38:21.732373Z"}}}